[[{"header":{"parameterUnit":"m.s-1","parameterCategory":1,"la1":30.2991,"la2":30.254,"lo1":-89.0895,"lo2":-89.0444,"dy":0.0017,"dx":0.0017,"nx":28,"ny":28,"refTime":"2025-05-20T21:00:00:Z","depth":0,"parameterNumber":2,"parameterNumberName":"U-component_of_WINDS"},"data":[0,0,0,0,0,0,0,0,0,0,0,0,0,0,0,0,0,0,0,0,0,0,0,0,0,0,0,0,0,0,0,0,0,0,0,0,0,0,0,0,0,0,0,0,0,0,0,0,0,0,0,0,0,0,0,0,0,0,-3.4692,-3.4693,0,-3.4766,-3.4767,-3.4768,-3.4734,-3.4732,-3.473,-3.4729,-3.4801,-3.4805,-3.4808,0,0,0,0,0,0,0,0,0,0,0,0,0,-3.452,-3.4523,-3.4692,-3.4693,-3.4694,-3.4766,-3.4767,-3.4768,-3.4734,-3.4732,-3.473,-3.4728,-3.48,-3.4804,-3.4809,0,0,0,0,0,0,0,0,0,0,0,0,0,-3.4594,-3.4524,-3.4692,-3.4686,-3.4686,-3.4766,-3.4767,-3.4768,-3.4735,-3.4732,-3.4729,-3.4727,-3.4799,-3.4804,-3.4809,-3.4898,0,0,-3.4826,-3.4828,0,0,0,0,0,0,0,0,-3.459,-3.4601,-3.4686,-3.4686,-3.4687,-3.4738,-3.4733,-3.4812,-3.4736,-3.4716,-3.4729,-3.4726,-3.4782,-3.4789,-3.4809,-3.4902,-3.4905,-3.4827,-3.483,-3.4832,-3.4834,0,0,0,0,0,0,0,-3.4585,-3.4597,-3.4721,-3.4687,-3.4688,-3.4679,-3.4687,-3.4748,-3.4764,-3.4718,-3.4716,-3.4725,-3.4782,-3.4804,-3.481,-3.4906,-3.4826,-3.4831,-3.4835,-3.4837,-3.5076,-3.5079,0,0,0,0,0,0,-3.458,-3.4593,-3.4719,-3.4723,-3.4631,-3.4684,-3.4693,-3.4724,-3.4763,-3.4766,-3.4727,-3.4723,-3.4796,-3.4804,-3.4813,-3.4919,-3.4832,-3.4837,-3.484,-3.5073,-3.5077,-3.508,0,0,0,0,0,0,-3.4577,-3.4592,-3.4716,-3.4658,-3.4673,-3.469,-3.4726,-3.4727,-3.4749,-3.477,-3.4773,-3.4746,-3.4794,-3.4805,-3.4878,-3.4921,-3.484,-3.4845,-3.507,-3.5074,-3.5079,-3.5133,0,0,0,0,0,0,-3.4572,-3.4591,-3.4625,-3.4659,-3.4676,-3.478,-3.4729,-3.4731,-3.4759,-3.4754,-3.4789,-3.4792,-3.4792,-3.487,-3.4883,-3.4927,-3.4849,-3.5066,-3.5072,-3.5077,-3.5127,-3.5139,-3.5149,0,0,0,0,0,-3.4566,-3.4636,-3.4627,-3.4642,-3.4719,-3.4783,-3.4792,-3.4792,-3.4762,-3.4796,-3.4811,-3.4791,-3.4915,-3.4877,-3.4892,-3.4939,-3.5063,-3.507,-3.5077,-3.5122,-3.5136,-3.5148,0,0,0,0,0,0,-3.4604,-3.464,-3.463,-3.4713,-3.4746,-3.4777,-3.4819,-3.4807,-3.4847,-3.4841,-3.4839,-3.4847,-3.4923,-3.4938,-3.4896,-3.5027,-3.4984,-3.4994,-3.5014,-3.5027,-3.5038,-3.5031,-3.4854,0,0,0,0,0,-3.4623,-3.4672,-3.4701,-3.4772,-3.4788,-3.4802,-3.4829,-3.4827,-3.4859,-3.4872,-3.4892,-3.4923,-3.4969,-3.5,-3.5043,-3.513,-3.5137,-3.517,-3.5181,-3.5189,-3.5197,-3.5245,-3.526,-3.5103,-3.5103,-3.5103,0,0,-3.4661,-3.4687,-3.4717,-3.478,-3.4804,-3.4855,-3.4813,-3.4868,-3.4905,-3.488,-3.495,-3.4966,-3.5001,-3.5082,-3.5118,-3.5097,-3.5243,-3.5198,-3.5205,-3.5208,-3.5253,-3.5268,-3.5281,-3.5108,-3.5107,-3.5106,0,0,-3.4755,-3.4781,-3.4842,-3.4869,-3.4907,-3.4916,-3.4931,-3.4966,-3.4975,-3.5046,-3.5029,-3.5074,-3.5153,-3.5179,-3.5203,-3.5311,-3.5294,-3.5326,-3.5381,-3.5427,-3.5439,-3.545,-3.5488,-3.5502,-3.5334,-3.5335,-3.5335,0,-3.4797,-3.4873,-3.4875,-3.4933,-3.4961,-3.4943,-3.5006,-3.5031,-3.5081,-3.5101,-3.5077,-3.5178,-3.52,-3.5287,-3.5314,-3.5334,-3.5351,-3.532,-3.5438,-3.5449,-3.5459,-3.5495,-3.5509,-3.5338,-3.5338,-3.5337,-3.5337,0,-3.4923,-3.4976,-3.5022,-3.5073,-3.5106,-3.5166,-3.5176,-3.521,-3.5206,-3.5218,-3.5291,-3.5318,-3.5367,-3.5388,-3.5384,-3.5475,-3.546,-3.5438,-3.5394,-3.5477,-3.5511,-3.5525,-3.5343,-3.5342,-3.5341,-3.534,0,0,-3.5039,-3.5094,-3.511,-3.5134,-3.5177,-3.5218,-3.5277,-3.5327,-3.5356,-3.5392,-3.5441,-3.5511,-3.5491,-3.5518,-3.5517,-3.5559,-3.5642,-3.5531,-3.5532,-3.5549,-3.5744,-3.5759,-3.5775,-3.5633,-3.5636,-3.5638,-3.574,0,-3.5136,-3.5241,-3.5246,-3.5341,-3.5391,-3.5377,-3.5429,-3.5461,-3.5474,-3.5517,-3.5532,-3.5581,-3.5551,-3.5567,-3.5608,-3.5624,-3.5681,-3.5617,-3.5677,-3.5679,-3.5666,-3.5793,-3.5808,-3.5903,-3.5754,-3.5756,-3.5758,0,-3.5262,-3.5304,-3.5405,-3.5443,-3.5464,-3.551,-3.5557,-3.5599,-3.5636,-3.5643,-3.5675,-3.5669,-3.573,-3.5687,-3.577,-3.5726,-3.5752,-3.5764,-3.5768,-3.5771,-3.5721,-3.5798,-3.5934,-3.5947,-3.5779,-3.5777,-3.5775,0,-3.5336,-3.5418,-3.5489,-3.551,-3.5556,-3.5589,-3.561,-3.5644,-3.5674,-3.5715,-3.5735,-3.5782,-3.5808,-3.5845,-3.5852,-3.582,-3.5936,-3.5893,-3.5942,-3.5942,-3.5964,-3.5962,-3.6104,-3.5985,-3.5985,-3.5984,-3.5984,0,-3.5442,-3.5503,-3.5523,-3.5566,-3.5635,-3.5642,-3.571,-3.5728,-3.5759,-3.5805,-3.5797,-3.584,-3.5848,-3.5894,-3.59,-3.5968,-3.598,-3.5987,-3.5987,-3.5986,-3.5985,-3.6001,-3.5993,-3.5988,-3.5987,-3.5987,-3.5986,0,-3.5534,-3.555,-3.5626,-3.5665,-3.5676,-3.5725,-3.5758,-3.58,-3.5814,-3.5873,-3.5887,-3.5908,-3.5961,-3.5974,-3.6036,-3.6041,-3.6121,-3.6116,-3.6109,-3.6107,-3.6155,-3.615,-3.631,-3.6331,-3.62,-3.6202,-3.6203,0,-3.5599,-3.5646,-3.5691,-3.5723,-3.5745,-3.5796,-3.5827,-3.5837,-3.587,-3.5917,-3.5953,-3.6006,-3.6048,-3.6134,-3.6154,-3.6203,-3.6198,-3.6251,-3.6205,-3.6202,-3.6196,-3.6193,-3.6197,-3.6258,-3.626,-3.6261,-3.6262,0,-3.5712,-3.5719,-3.5765,-3.5816,-3.5854,-3.5894,-3.5932,-3.5958,-3.5972,-3.601,-3.6065,-3.6099,-3.6165,-3.6217,-3.6266,-3.6287,-3.6277,-3.6277,-3.6291,-3.6288,-3.6282,-3.6285,-3.613,-3.6272,-3.6271,-3.6271,-3.627,-3.627,-3.5792,-3.5834,-3.5872,-3.5925,-3.5955,-3.5992,-3.6033,-3.6053,-3.61,-3.6155,-3.6158,-3.6218,-3.6255,-3.6321,-3.6345,-3.6392,-3.6375,-3.6395,-3.64,-3.6404,-3.6408,-3.6277,-3.6401,-3.6401,-3.6401,-3.64,-3.64,0,-3.5903,-3.5929,-3.5977,-3.6032,-3.6073,-3.6064,-3.6106,-3.6141,-3.6194,-3.6231,-3.6274,-3.6338,-3.6389,-3.6416,-3.6467,-3.65,-3.6496,-3.6512,-3.6508,-3.6513,-3.642,-3.6403,-3.6514,-3.6514,-3.6514,-3.6514,-3.6514,-3.6514,-3.5966,-3.6036,-3.6048,-3.6134,-3.6158,-3.6218,-3.6243,-3.6277,-3.6306,-3.6379,-3.6422,-3.644,-3.6472,-3.6526,-3.6573,-3.658,-3.6598,-3.6616,-3.662,-3.6532,-3.652,-3.6509,-3.6492,-3.6621,-3.6621,-3.6709,-3.671,-3.6711]},{"header":{"parameterUnit":"m.s-1","parameterCategory":1,"la1":30.2991,"la2":30.254,"lo1":-89.0895,"lo2":-89.0444,"dy":0.0017,"dx":0.0017,"nx":28,"ny":28,"refTime":"2025-05-20T21:00:00:Z","depth":0,"parameterNumber":3,"parameterNumberName":"V-component_of_WINDS"},"data":[0,0,0,0,0,0,0,0,0,0,0,0,0,0,0,0,0,0,0,0,0,0,0,0,0,0,0,0,0,0,0,0,0,0,0,0,0,0,0,0,0,0,0,0,0,0,0,0,0,0,0,0,0,0,0,0,0,0,0.5245,0.5245,0,0.5297,0.5297,0.5298,0.5305,0.5304,0.5304,0.5303,0.536,0.5362,0.5363,0,0,0,0,0,0,0,0,0,0,0,0,0,0.5156,0.5158,0.5244,0.5245,0.5246,0.5297,0.5297,0.5298,0.5305,0.5304,0.5304,0.5303,0.5359,0.5361,0.5364,0,0,0,0,0,0,0,0,0,0,0,0,0,0.52,0.5158,0.5244,0.5255,0.5257,0.5296,0.5297,0.5298,0.5305,0.5304,0.5303,0.5303,0.5358,0.5361,0.5364,0.5397,0,0,0.5373,0.5374,0,0,0,0,0,0,0,0,0.5197,0.5203,0.5253,0.5255,0.5256,0.5293,0.5287,0.5332,0.5305,0.5287,0.5303,0.5302,0.5338,0.5343,0.5354,0.54,0.5402,0.5373,0.5375,0.5376,0.5377,0,0,0,0,0,0,0,0.5194,0.5201,0.5265,0.5254,0.5256,0.5259,0.5265,0.5295,0.5316,0.5288,0.5289,0.5295,0.5339,0.5352,0.5356,0.5403,0.5373,0.5376,0.5378,0.5379,0.5483,0.5484,0,0,0,0,0,0,0.5189,0.5198,0.5264,0.5267,0.5224,0.5261,0.5267,0.5282,0.5316,0.532,0.5295,0.5295,0.5347,0.5352,0.5358,0.5402,0.5376,0.5379,0.5381,0.5482,0.5484,0.5485,0,0,0,0,0,0,0.5187,0.5194,0.5261,0.5233,0.5242,0.5264,0.528,0.5284,0.5296,0.5321,0.5325,0.5304,0.5347,0.5354,0.5388,0.5404,0.538,0.5383,0.5481,0.5483,0.5484,0.5488,0,0,0,0,0,0,0.5184,0.5194,0.5205,0.5233,0.5243,0.5289,0.5281,0.5285,0.5301,0.5301,0.533,0.5335,0.5346,0.5384,0.5391,0.5407,0.5385,0.548,0.5482,0.5484,0.5487,0.549,0.5492,0,0,0,0,0,0.5181,0.5204,0.5206,0.5213,0.5258,0.529,0.5296,0.5308,0.5302,0.5315,0.5332,0.5334,0.5401,0.5387,0.5396,0.5413,0.5479,0.5481,0.5484,0.5486,0.5489,0.5492,0,0,0,0,0,0,0.5178,0.5208,0.521,0.5242,0.5264,0.5291,0.5307,0.5311,0.5335,0.5334,0.535,0.5356,0.5391,0.5405,0.539,0.5449,0.544,0.5444,0.5438,0.5442,0.5445,0.5441,0.5388,0,0,0,0,0,0.518,0.5203,0.5229,0.5255,0.5265,0.5285,0.5299,0.5307,0.533,0.534,0.5359,0.5382,0.5409,0.5426,0.5452,0.5489,0.5498,0.5506,0.5508,0.551,0.5514,0.5539,0.5543,0.5492,0.5492,0.5492,0,0,0.5187,0.5206,0.5219,0.5255,0.5272,0.5297,0.5292,0.5318,0.5337,0.5344,0.5378,0.5393,0.5421,0.5458,0.5475,0.5471,0.553,0.5513,0.5515,0.5517,0.5541,0.5546,0.555,0.5494,0.5493,0.5493,0,0,0.5211,0.5227,0.5252,0.527,0.5297,0.531,0.5316,0.5344,0.5355,0.5389,0.5395,0.542,0.5464,0.5485,0.5501,0.5537,0.5541,0.5546,0.556,0.5583,0.5587,0.5591,0.5607,0.5612,0.5549,0.5549,0.5549,0,0.5216,0.5252,0.5265,0.5291,0.5308,0.5315,0.5342,0.536,0.5394,0.5406,0.5401,0.546,0.5478,0.5522,0.5531,0.5543,0.5553,0.5542,0.5586,0.5589,0.5593,0.5608,0.5614,0.5549,0.5549,0.5549,0.5549,0,0.5259,0.5284,0.5301,0.5334,0.5353,0.538,0.5398,0.5416,0.5423,0.5438,0.5475,0.5499,0.5531,0.5542,0.5548,0.5587,0.5584,0.5582,0.5573,0.5598,0.5613,0.5619,0.555,0.555,0.555,0.555,0,0,0.5281,0.5322,0.5328,0.5345,0.5376,0.5397,0.5426,0.5457,0.5474,0.5498,0.5524,0.5563,0.5563,0.5581,0.5591,0.5612,0.5643,0.5608,0.5609,0.5615,0.5691,0.5693,0.5699,0.5646,0.5647,0.5647,0.5689,0,0.531,0.536,0.5373,0.5416,0.5442,0.5451,0.5476,0.55,0.5515,0.5541,0.5558,0.5587,0.5582,0.5594,0.5615,0.5634,0.5658,0.5631,0.5672,0.5674,0.5666,0.5707,0.5709,0.5747,0.5695,0.5696,0.5696,0,0.5351,0.5376,0.5422,0.5453,0.5465,0.5487,0.5519,0.5542,0.557,0.5581,0.5603,0.5612,0.5645,0.5634,0.5681,0.5663,0.5681,0.5693,0.5695,0.57,0.5687,0.5715,0.5759,0.5765,0.5705,0.5704,0.5704,0,0.5365,0.5411,0.5445,0.5459,0.5495,0.5512,0.5528,0.5555,0.5575,0.5603,0.5616,0.5648,0.5666,0.5692,0.571,0.57,0.5757,0.5747,0.5769,0.5769,0.5781,0.578,0.583,0.579,0.579,0.579,0.5789,0,0.5398,0.5426,0.5452,0.5473,0.5506,0.5523,0.5556,0.5573,0.5598,0.5625,0.5634,0.5659,0.5681,0.571,0.5725,0.5764,0.5772,0.5783,0.5787,0.5783,0.5781,0.5795,0.5794,0.5791,0.5791,0.579,0.579,0,0.5419,0.5437,0.5476,0.5508,0.5517,0.554,0.5569,0.5592,0.5608,0.5642,0.5651,0.5678,0.5713,0.5734,0.5777,0.5788,0.5832,0.5833,0.5822,0.5824,0.5846,0.5844,0.5907,0.5918,0.5869,0.5869,0.587,0,0.5439,0.5461,0.5496,0.5514,0.5531,0.556,0.558,0.5599,0.5619,0.5656,0.5674,0.571,0.5739,0.5795,0.582,0.5855,0.5859,0.5878,0.5864,0.586,0.5862,0.5861,0.5865,0.5881,0.5881,0.5882,0.5882,0,0.5473,0.5482,0.5509,0.5542,0.5565,0.5592,0.5618,0.5633,0.5657,0.568,0.5716,0.5739,0.5785,0.5821,0.5859,0.5878,0.5886,0.5887,0.5894,0.5891,0.5884,0.5891,0.5831,0.5885,0.5885,0.5885,0.5884,0.5884,0.5495,0.5517,0.5546,0.5577,0.56,0.5625,0.5648,0.5669,0.5698,0.5737,0.5747,0.5785,0.5817,0.5868,0.5889,0.5921,0.5918,0.5928,0.5931,0.5933,0.5935,0.5878,0.5928,0.5928,0.5927,0.5927,0.5927,0,0.5532,0.5551,0.5581,0.5618,0.5644,0.5648,0.5678,0.57,0.5734,0.5762,0.5791,0.5835,0.5871,0.5899,0.5937,0.5958,0.5963,0.5968,0.5967,0.5972,0.5934,0.5925,0.5963,0.5963,0.5963,0.5963,0.5963,0.5963,0.5554,0.5591,0.5604,0.5654,0.5674,0.5711,0.5729,0.5754,0.5777,0.5824,0.5854,0.5873,0.5902,0.5943,0.5978,0.5986,0.6,0.6005,0.6014,0.5978,0.5974,0.597,0.5962,0.6007,0.6008,0.6049,0.6049,0.605]}]]